Change the Weather History Date:

Sunday, October 14, 2012

  Actual Average Record
Temperature  
Mean Temperature 48 °F -  
Max Temperature 60 °F 55 °F 69 °F (2001)
Min Temperature 37 °F 39 °F 32 °F (2004)
Degree Days  
Heating Degree Days 16    
Moisture  
Dew Point 43 °F    
Average Humidity 81    
Maximum Humidity 100    
Minimum Humidity 48    
Precipitation  
Precipitation 0.00 in - - ()
Sea Level Pressure  
Sea Level Pressure 29.67 in    
Wind  
Wind Speed 4 mph ()    
Max Wind Speed 12 mph    
Max Gust Speed -    
Visibility 6.2 miles    
Events Fog    
Averages and records for this station are not official NWS values.
T = Trace of Precipitation, MM = Missing Value Source: Averaged Metar Reports

Daily Weather History Graph

Daily Weather History Graph

Search for Another Location

Airport or City:

Trip Planner

Search our weather history database for the weather conditions in past years. The results will help you decide how hot, cold, wet, or windy it might be!

Date:

Astronomy

Oct. 14, 2012 Rise Set
Actual Time 7:31 AM CEST 6:25 PM CEST
Civil Twilight 6:59 AM CEST 6:56 PM CEST
Nautical Twilight 6:23 AM CEST 7:32 PM CEST
Astronomical Twilight 5:47 AM CEST 8:08 PM CEST
Moon 6:07 AM CEST (10/14) 5:34 PM CEST (10/14)
Length of Visible Light 11h 56m
Length of Day
10h 53m
Waning Crescent, 2% of the Moon is Illuminated
Oct 14
Waning Crescent
Oct 15
New
Oct 22
First Quarter
Oct 29
Full
Nov 7
Last Quarter

Hourly Weather History & Observations

Time (CEST) Temp. Windchill Dew Point Humidity Pressure Visibility Wind Dir Wind Speed Gust Speed Precip Events Conditions
12:20 AM 37.4 °F 34.9 °F 37.4 °F 100% 29.80 in 6.2 mi South 3.5 mph - N/A Fog Shallow Fog
12:50 AM 39.2 °F 35.0 °F 39.2 °F 100% 29.80 in - SSW 5.8 mph - N/A   Clear
1:20 AM 41.0 °F 39.0 °F 41.0 °F 100% 29.80 in 6.2 mi SSW 3.5 mph - N/A Fog Shallow Fog
2:20 AM 39.2 °F - 39.2 °F 100% 29.80 in - SW 2.3 mph - N/A   Clear
2:50 AM 39.2 °F - 39.2 °F 100% 29.80 in - South 2.3 mph - N/A   Clear
3:20 AM 39.2 °F - 39.2 °F 100% 29.80 in - South 2.3 mph - N/A   Clear
3:50 AM 41.0 °F 39.0 °F 41.0 °F 100% 29.80 in - South 3.5 mph - N/A   Clear
4:20 AM 41.0 °F - 41.0 °F 100% 29.80 in 6.2 mi SSE 2.3 mph - N/A   Scattered Clouds
4:50 AM 39.2 °F 37.0 °F 39.2 °F 100% 29.80 in 6.2 mi SSE 3.5 mph - N/A   Scattered Clouds
5:20 AM 41.0 °F - 41.0 °F 100% 29.80 in - South 2.3 mph - N/A   Clear
5:50 AM 42.8 °F - 42.8 °F 100% 29.77 in - Variable 1.2 mph - N/A   Clear
6:20 AM 42.8 °F - 42.8 °F 100% 29.77 in - Variable 2.3 mph - N/A   Clear
6:50 AM 42.8 °F - 42.8 °F 100% 29.77 in - ESE 1.2 mph - N/A   Clear
7:20 AM 42.8 °F - 42.8 °F 100% 29.77 in - South 1.2 mph - N/A   Clear
7:50 AM 44.6 °F 43.1 °F 42.8 °F 93% 29.77 in - Variable 3.5 mph - N/A   Clear
8:20 AM 44.6 °F 43.1 °F 42.8 °F 93% 29.77 in - SSE 3.5 mph - N/A   Clear
8:50 AM 46.4 °F - 42.8 °F 87% 29.77 in - West 2.3 mph - N/A   Clear
9:20 AM 46.4 °F - 44.6 °F 93% 29.77 in - Variable 1.2 mph - N/A   Clear
9:50 AM 50.0 °F - 46.4 °F 87% 29.74 in - SSE 2.3 mph - N/A   Clear
10:20 AM 50.0 °F - 44.6 °F 82% 29.74 in - SE 3.5 mph - N/A   Clear
10:50 AM 51.8 °F - 46.4 °F 82% 29.74 in - ESE 2.3 mph - N/A   Clear
11:20 AM 55.4 °F - 42.8 °F 63% 29.71 in - South 5.8 mph - N/A   Clear
11:50 AM 57.2 °F - 42.8 °F 59% 29.71 in - SW 4.6 mph - N/A   Clear
12:20 PM 57.2 °F - 42.8 °F 59% 29.68 in - SW 4.6 mph - N/A   Clear
12:50 PM 59.0 °F - 41.0 °F 51% 29.68 in 6.2 mi SSE 4.6 mph - N/A   Scattered Clouds
1:20 PM 59.0 °F - 41.0 °F 51% 29.65 in 6.2 mi SE 6.9 mph - N/A   Mostly Cloudy
1:50 PM 59.0 °F - 42.8 °F 55% 29.65 in 6.2 mi ESE 5.8 mph - N/A   Mostly Cloudy
2:20 PM 60.8 °F - 41.0 °F 48% 29.62 in 6.2 mi East 3.5 mph - N/A   Mostly Cloudy
2:50 PM 60.8 °F - 42.8 °F 52% 29.62 in 6.2 mi ESE 5.8 mph - N/A   Mostly Cloudy
3:20 PM 59.0 °F - 42.8 °F 55% 29.59 in - ESE 8.1 mph - N/A   Clear
3:50 PM 59.0 °F - 42.8 °F 55% 29.59 in - East 10.4 mph - N/A   Clear
4:20 PM 57.2 °F - 42.8 °F 59% 29.59 in - East 11.5 mph - N/A   Clear
4:50 PM 57.2 °F - 44.6 °F 63% 29.56 in - East 11.5 mph - N/A   Clear
5:20 PM 57.2 °F - 44.6 °F 63% 29.56 in - East 11.5 mph - N/A   Clear
5:50 PM 55.4 °F - 44.6 °F 67% 29.56 in - East 6.9 mph - N/A   Clear
6:20 PM 53.6 °F - 44.6 °F 72% 29.53 in - East 8.1 mph - N/A   Clear
6:50 PM 51.8 °F - 44.6 °F 76% 29.53 in - ENE 4.6 mph - N/A   Clear
7:20 PM 51.8 °F - 44.6 °F 76% 29.53 in - ENE 5.8 mph - N/A   Clear
7:50 PM 50.0 °F - 44.6 °F 82% 29.53 in - ENE 8.1 mph - N/A   Clear
8:20 PM 48.2 °F - 44.6 °F 87% 29.53 in - ENE 4.6 mph - N/A   Clear
8:50 PM 48.2 °F - 42.8 °F 82% 29.53 in - NE 5.8 mph - N/A   Clear
9:20 PM 48.2 °F - 44.6 °F 87% 29.53 in - East 4.6 mph - N/A   Clear
9:50 PM 48.2 °F - 44.6 °F 87% 29.53 in - East 5.8 mph - N/A   Clear
10:20 PM 46.4 °F 45.2 °F 42.8 °F 87% 29.53 in - East 3.5 mph - N/A   Clear
10:50 PM 46.4 °F 43.5 °F 44.6 °F 93% 29.53 in - West 5.8 mph - N/A   Clear
11:20 PM 44.6 °F 43.1 °F 41.0 °F 87% 29.53 in - Variable 3.5 mph - N/A   Clear
11:50 PM 41.0 °F - 39.2 °F 93% 29.53 in - SE 2.3 mph - N/A   Clear